Weather History for Chattanooga, TN

Change the Weather History Date:

Sunday, March 31, 2013

  Actual Average Record
Temperature  
Mean Temperature 60 °F 56 °F  
Max Temperature 65 °F 69 °F 87 °F (1963)
Min Temperature 55 °F 44 °F 25 °F (1923)
Degree Days  
Heating Degree Days 5 9  
Month to date heating degree days 551 403  
Since 1 July heating degree days 2867 3026  
Cooling Degree Days 0 1  
Month to date cooling degree days 3 7  
Year to date cooling degree days 5 7  
Growing Degree Days 10 (Base 50)    
Moisture  
Dew Point 56 °F    
Average Humidity 84    
Maximum Humidity 100    
Minimum Humidity 67    
Precipitation  
Precipitation 0.56 in 0.15 in 1.87 in (1927)
Month to date precipitation 4.71 4.98  
Year to date precipitation 18.39 14.73  
Snow  
Snow 0.00 in 0.00 in - ()
Month to date snowfall T 1.2  
Since 1 July snowfall 0.3 3.8  
Snow Depth 0.00 in    
Sea Level Pressure  
Sea Level Pressure 29.92 in    
Wind  
Wind Speed 4 mph (SSW)    
Max Wind Speed 16 mph    
Max Gust Speed 22 mph    
Visibility 7 miles    
Events Rain    
T = Trace of Precipitation, MM = Missing Value Source: NWS Daily Summary

Daily Weather History Graph

Daily Weather History Graph

Search for Another Location

Airport:

Trip Planner

Search our weather history database for the weather conditions in past years. The results will help you decide how hot, cold, wet, or windy it might be!

Date:

Astronomy

Mar. 31, 2013 Rise Set
Actual Time 7:28 AM EDT 8:01 PM EDT
Civil Twilight 7:03 AM EDT 8:27 PM EDT
Nautical Twilight 6:33 AM EDT 8:57 PM EDT
Astronomical Twilight 6:02 AM EDT 9:27 PM EDT
Moon No Moon Rise 10:25 AM EDT (3/31)
Length of Visible Light 13h 23m
Length of Day
12h 32m
Waning Gibbous, 78% of the Moon is Illuminated
Mar 31
Waning Gibbous
Apr 3
Last Quarter
Apr 10
New
Apr 18
First Quarter
Apr 25
Full

Hourly Weather History & Observations

Time (EDT) Temp. Dew Point Humidity Pressure Visibility Wind Dir Wind Speed Gust Speed Precip Events Conditions
12:00 AM 55.4 °F 55.4 °F 100% 30.00 in 5.0 mi Calm Calm - 0.01 in Rain Light Rain
12:33 AM 55.4 °F 55.4 °F 100% 30.00 in 3.0 mi South 3.5 mph - 0.05 in Rain Rain
12:46 AM 55.4 °F 55.4 °F 100% 29.99 in 4.0 mi South 3.5 mph - 0.07 in Rain Light Rain
12:53 AM 55.0 °F 55.0 °F 100% 29.98 in 5.0 mi South 3.5 mph - 0.08 in Rain Light Rain
1:29 AM 55.4 °F 55.4 °F 100% 29.98 in 2.5 mi South 4.6 mph - 0.05 in Rain Rain
1:43 AM 55.4 °F 55.4 °F 100% 29.98 in 3.0 mi South 4.6 mph - 0.09 in Rain Light Rain
1:53 AM 55.0 °F 55.0 °F 100% 29.97 in 3.0 mi South 6.9 mph - 0.10 in Rain Rain
2:07 AM 55.4 °F 55.4 °F 100% 29.97 in 3.0 mi South 4.6 mph - 0.03 in Rain Light Rain
2:39 AM 55.4 °F 55.4 °F 100% 29.95 in 4.0 mi South 6.9 mph - 0.07 in Rain Light Rain
2:53 AM 55.0 °F 55.0 °F 100% 29.94 in 5.0 mi South 5.8 mph - 0.08 in Rain Light Rain
3:37 AM 55.4 °F 55.4 °F 100% 29.94 in 9.0 mi South 5.8 mph - 0.00 in   Overcast
3:53 AM 55.0 °F 55.0 °F 100% 29.93 in 4.0 mi South 4.6 mph - 0.00 in Rain Light Rain
4:53 AM 55.0 °F 55.0 °F 100% 29.92 in 9.0 mi South 4.6 mph - 0.03 in   Overcast
5:53 AM 55.9 °F 55.0 °F 97% 29.91 in 10.0 mi SW 4.6 mph - N/A   Mostly Cloudy
6:53 AM 55.9 °F 55.0 °F 97% 29.92 in 10.0 mi South 3.5 mph - N/A   Mostly Cloudy
7:53 AM 55.9 °F 55.0 °F 97% 29.93 in 10.0 mi Calm Calm - N/A   Mostly Cloudy
8:53 AM 57.0 °F 55.9 °F 96% 29.96 in 10.0 mi South 3.5 mph - N/A   Mostly Cloudy
9:53 AM 59.0 °F 55.9 °F 90% 29.95 in 10.0 mi Calm Calm - N/A   Mostly Cloudy
10:35 AM 59.0 °F 55.4 °F 88% 29.95 in 10.0 mi South 4.6 mph - N/A   Overcast
10:53 AM 59.0 °F 55.9 °F 90% 29.95 in 10.0 mi South 4.6 mph - N/A   Overcast
11:36 AM 62.6 °F 53.6 °F 72% 29.95 in 10.0 mi SSW 4.6 mph - N/A   Mostly Cloudy
11:53 AM 63.0 °F 55.0 °F 75% 29.93 in 10.0 mi Variable 4.6 mph - N/A   Mostly Cloudy
12:53 PM 64.0 °F 54.0 °F 70% 29.92 in 10.0 mi South 6.9 mph - N/A   Mostly Cloudy
1:53 PM 63.0 °F 55.0 °F 75% 29.92 in 2.0 mi SW 8.1 mph - 0.00 in Rain Heavy Rain
2:03 PM 60.8 °F 57.2 °F 88% 29.93 in 5.0 mi South 8.1 mph - 0.05 in Rain Heavy Rain
2:18 PM 60.8 °F 57.2 °F 88% 29.92 in 10.0 mi SSW 5.8 mph - 0.06 in Rain Light Rain
2:34 PM 60.8 °F 57.2 °F 88% 29.91 in 10.0 mi SSW 5.8 mph - 0.07 in Rain Light Rain
2:53 PM 61.0 °F 59.0 °F 93% 29.90 in 10.0 mi South 5.8 mph - 0.08 in Rain Light Rain
3:00 PM 60.8 °F 59.0 °F 94% 29.90 in 10.0 mi SSE 9.2 mph - 0.00 in   Overcast
3:09 PM 60.8 °F 57.2 °F 88% 29.89 in 10.0 mi South 10.4 mph - 0.00 in   Overcast
3:41 PM 62.6 °F 59.0 °F 88% 29.89 in 10.0 mi SW 8.1 mph - 0.00 in   Overcast
3:53 PM 63.0 °F 57.0 °F 81% 29.89 in 10.0 mi SW 11.5 mph 16.1 mph 0.00 in   Overcast
4:12 PM 62.6 °F 55.4 °F 77% 29.90 in 10.0 mi West 9.2 mph 18.4 mph 0.00 in Rain Light Rain
4:35 PM 62.6 °F 55.4 °F 77% 29.89 in 10.0 mi WSW 10.4 mph 16.1 mph 0.00 in Rain Light Rain
4:53 PM 63.0 °F 57.0 °F 81% 29.88 in 10.0 mi WSW 9.2 mph - 0.00 in   Mostly Cloudy
5:53 PM 63.0 °F 57.0 °F 81% 29.86 in 10.0 mi West 6.9 mph - N/A   Overcast
6:04 PM 62.6 °F 57.2 °F 82% 29.87 in 1.0 mi WNW 9.2 mph - 0.00 in Rain Rain
6:41 PM 60.8 °F 57.2 °F 88% 29.88 in 1.5 mi WNW 6.9 mph - 0.20 in Rain Heavy Rain
6:53 PM 60.1 °F 59.0 °F 96% 29.87 in 1.5 mi West 4.6 mph - 0.22 in Rain Light Rain
7:07 PM 60.8 °F 57.2 °F 88% 29.88 in 3.0 mi West 4.6 mph - 0.02 in Rain Light Rain
7:53 PM 60.1 °F 57.9 °F 93% 29.86 in 6.0 mi SW 9.2 mph - 0.04 in Rain Light Rain
8:53 PM 59.0 °F 57.9 °F 96% 29.87 in 8.0 mi Calm Calm - 0.01 in   Overcast
9:53 PM 57.9 °F 57.9 °F 100% 29.88 in 8.0 mi Calm Calm - 0.00 in   Overcast
10:53 PM 57.9 °F 57.0 °F 97% 29.90 in 8.0 mi Calm Calm - N/A   Overcast
11:53 PM 57.9 °F 57.0 °F 97% 29.91 in 8.0 mi Calm Calm - N/A   Mostly Cloudy